LAOSAT 1 (41034 NORAD) Tracking and Keplerian Element Data

This shows tracking and keplerian element data for the satellite.

Feedback or suggestion? Click here.




ElementValue
Catalog41034
NameLAOSAT 1
Epoch Orbit2521
Epoch Day269.98319306
Epoch Year2022
RAAN19.3178
Inclination0.0443
Eccentricity0.000159
Argument of Perigee123.6796
Mean Anonmoly345.2348
Mean Motion1.00269482
Decay Rate-3.4E-06
L11 41034U 15067A 22269.98319306 -.00000340 00000+0 00000+0 0 9997
L22 41034 0.0443 19.3178 0001590 123.6796 345.2348 1.00269482 25214

Live tracking and technical data element details for LAOSAT 1 (NORAD 41034). LAOSAT 1 can be tracked NOW for your location showing map with azimuth and elevation plus other details from your city location.

Track the satellite on the map from your city or location and see movement details for azimuth, elevation, latitude, longitude, range, height, and movement on the map or in text.







IsCatalogInMostPopularTable: catalog: 41034, numindb: 601
Update: records affected: 1



GetName: 41034 LAOSAT 1

Hit Count: updated at: Fri, 30 Sep 2022 02:36:24 GMT